Weather History for Ainsworth, NE

Change the Weather History Date:

Tuesday, July 16, 2013

  Actual Average Record
Temperature  
Mean Temperature 73 °F -  
Max Temperature 84 °F 86 °F 109 °F (2006)
Min Temperature 63 °F 61 °F 52 °F (2014)
Cooling Degree Days 8    
Growing Degree Days 23 (Base 50)    
Moisture  
Dew Point 62 °F    
Average Humidity 68    
Maximum Humidity 94    
Minimum Humidity 45    
Precipitation  
Precipitation 0.00 in - - ()
Sea Level Pressure  
Sea Level Pressure 30.20 in    
Wind  
Wind Speed 12 mph (South)    
Max Wind Speed 20 mph    
Max Gust Speed 26 mph    
Visibility 10 miles    
Events      
Averages and records for this station are not official NWS values.
T = Trace of Precipitation, MM = Missing Value Source: NWS Daily Summary

Daily Weather History Graph

Daily Weather History Graph

Search for Another Location

Airport:

Trip Planner

Search our weather history database for the weather conditions in past years. The results will help you decide how hot, cold, wet, or windy it might be!

Date:

Astronomy

Jul. 16, 2013 Rise Set
Actual Time 6:16 AM CDT 9:14 PM CDT
Civil Twilight 5:43 AM CDT 9:48 PM CDT
Nautical Twilight 5:00 AM CDT 10:30 PM CDT
Astronomical Twilight 4:10 AM CDT 11:20 PM CDT
Moon 2:55 PM CDT (7/16) 12:51 AM CDT (7/16)
Length of Visible Light 16h 05m
Length of Day
14h 57m
First Quarter, 56% of the Moon is Illuminated
Jul 16
First Quarter
Jul 22
Full
Jul 29
Last Quarter
Aug 6
New
Aug 14
First Quarter

Hourly Weather History & Observations

Time (CDT) Temp. Heat Index Dew Point Humidity Pressure Visibility Wind Dir Wind Speed Gust Speed Precip Events Conditions
12:15 AM 70.7 °F - 60.8 °F 71% 30.16 in 10.0 mi SSE 11.5 mph - N/A   Clear
12:35 AM 69.8 °F - 60.8 °F 73% 30.16 in 10.0 mi SSE 10.4 mph - N/A   Clear
12:55 AM 69.8 °F - 61.0 °F 73% 30.16 in 10.0 mi SSE 10.4 mph - N/A   Clear
1:15 AM 69.3 °F - 61.0 °F 75% 30.16 in 10.0 mi South 11.5 mph - N/A   Clear
1:35 AM 69.1 °F - 60.8 °F 75% 30.17 in 10.0 mi South 10.4 mph 16.1 mph N/A   Clear
1:55 AM 68.2 °F - 60.8 °F 77% 30.17 in 10.0 mi South 10.4 mph - N/A   Clear
2:15 AM 68.4 °F - 60.8 °F 77% 30.17 in 10.0 mi South 10.4 mph - N/A   Clear
2:35 AM 68.0 °F - 60.8 °F 78% 30.17 in 10.0 mi South 10.4 mph - N/A   Clear
2:55 AM 67.3 °F - 60.8 °F 80% 30.17 in 10.0 mi South 9.2 mph - N/A   Clear
3:15 AM 66.6 °F - 60.8 °F 82% 30.17 in 10.0 mi South 8.1 mph - N/A   Clear
3:35 AM 65.3 °F - 60.8 °F 85% 30.17 in 10.0 mi South 6.9 mph - N/A   Clear
3:55 AM 64.6 °F - 60.8 °F 88% 30.17 in 10.0 mi South 6.9 mph - N/A   Clear
4:15 AM 64.0 °F - 60.8 °F 89% 30.17 in 10.0 mi South 6.9 mph - N/A   Clear
4:35 AM 63.9 °F - 60.8 °F 90% 30.16 in 10.0 mi South 5.8 mph - N/A   Clear
4:55 AM 64.4 °F - 61.3 °F 90% 30.16 in 10.0 mi South 8.1 mph - N/A   Clear
5:15 AM 65.3 °F - 61.9 °F 89% 30.16 in 10.0 mi South 9.2 mph - N/A   Clear
5:35 AM 65.1 °F - 61.9 °F 89% 30.17 in 10.0 mi South 9.2 mph - N/A   Clear
5:55 AM 64.8 °F - 61.9 °F 90% 30.17 in 10.0 mi South 9.2 mph - N/A   Clear
6:15 AM 64.2 °F - 61.7 °F 91% 30.17 in 10.0 mi South 6.9 mph - N/A   Clear
6:35 AM 63.5 °F - 61.9 °F 94% 30.18 in 10.0 mi South 6.9 mph - N/A   Clear
6:55 AM 63.9 °F - 62.2 °F 94% 30.19 in 10.0 mi South 6.9 mph - N/A   Clear
7:15 AM 64.4 °F - 62.6 °F 94% 30.19 in 10.0 mi South 8.1 mph - N/A   Clear
7:35 AM 65.8 °F - 63.1 °F 91% 30.20 in 10.0 mi South 10.4 mph - N/A   Clear
7:55 AM 67.1 °F - 63.0 °F 87% 30.21 in 10.0 mi South 13.8 mph - N/A   Clear
8:15 AM 68.0 °F - 63.0 °F 84% 30.21 in 10.0 mi South 15.0 mph 18.4 mph N/A   Clear
8:35 AM 69.4 °F - 62.6 °F 79% 30.22 in 10.0 mi South 15.0 mph - N/A   Clear
8:55 AM 70.7 °F - 62.2 °F 75% 30.22 in 10.0 mi SSW 16.1 mph - N/A   Clear
9:15 AM 70.9 °F - 62.2 °F 74% 30.22 in 10.0 mi SSW 17.3 mph - N/A   Clear
9:35 AM 72.0 °F - 62.8 °F 73% 30.22 in 10.0 mi South 16.1 mph 21.9 mph N/A   Scattered Clouds
9:55 AM 73.4 °F - 62.6 °F 69% 30.22 in 10.0 mi South 15.0 mph - N/A   Clear
10:15 AM 74.3 °F - 62.6 °F 67% 30.22 in 10.0 mi South 15.0 mph - N/A   Clear
10:55 AM 76.6 °F - 63.0 °F 62% 30.22 in 10.0 mi South 13.8 mph - N/A   Clear
11:15 AM 77.0 °F - 61.9 °F 59% 30.22 in 10.0 mi South 15.0 mph - N/A   Clear
11:35 AM 77.5 °F - 62.1 °F 59% 30.22 in 10.0 mi South 16.1 mph 23.0 mph N/A   Clear
11:55 AM 77.5 °F - 62.2 °F 59% 30.22 in 10.0 mi South 17.3 mph - N/A   Clear
12:15 PM 79.2 °F - 63.3 °F 58% 30.22 in 10.0 mi SSW 17.3 mph 23.0 mph N/A   Clear
12:35 PM 79.3 °F - 62.8 °F 57% 30.22 in 10.0 mi South 17.3 mph 23.0 mph N/A   Clear
12:55 PM 79.9 °F - 62.2 °F 55% 30.22 in 10.0 mi South 18.4 mph 26.5 mph N/A   Clear
1:15 PM 80.6 °F 81.7 °F 62.2 °F 53% 30.22 in 10.0 mi South 18.4 mph 24.2 mph N/A   Clear
1:35 PM 80.8 °F 82.0 °F 62.6 °F 54% 30.22 in 10.0 mi South 18.4 mph 26.5 mph N/A   Scattered Clouds
1:55 PM 81.3 °F 82.3 °F 62.2 °F 52% 30.22 in 10.0 mi South 18.4 mph - N/A   Clear
2:15 PM 80.4 °F 81.5 °F 61.7 °F 53% 30.22 in 10.0 mi South 19.6 mph 26.5 mph N/A   Mostly Cloudy
2:35 PM 81.0 °F 81.8 °F 61.2 °F 51% 30.22 in 10.0 mi South 18.4 mph - N/A   Scattered Clouds
3:55 PM 81.5 °F 82.5 °F 62.2 °F 52% 30.21 in 10.0 mi South 19.6 mph 24.2 mph N/A   Scattered Clouds
4:15 PM 83.7 °F 84.1 °F 61.5 °F 47% 30.21 in 10.0 mi South 16.1 mph 25.3 mph N/A   Scattered Clouds
4:35 PM 83.5 °F 83.6 °F 60.3 °F 45% 30.21 in 10.0 mi South 16.1 mph 24.2 mph N/A   Scattered Clouds
4:55 PM 81.0 °F 81.7 °F 60.4 °F 50% 30.21 in 10.0 mi South 16.1 mph - N/A   Mostly Cloudy
5:15 PM 81.9 °F 82.2 °F 60.1 °F 47% 30.21 in 10.0 mi South 15.0 mph 19.6 mph N/A   Mostly Cloudy
5:35 PM 81.9 °F 82.2 °F 59.9 °F 47% 30.21 in 10.0 mi South 15.0 mph - N/A   Mostly Cloudy
5:55 PM 83.3 °F 83.5 °F 60.6 °F 46% 30.21 in 10.0 mi South 15.0 mph 19.6 mph N/A   Mostly Cloudy
6:15 PM 82.0 °F 82.7 °F 61.2 °F 49% 30.20 in 10.0 mi South 12.7 mph - N/A   Scattered Clouds
6:35 PM 82.8 °F 83.3 °F 61.0 °F 48% 30.20 in 10.0 mi South 19.6 mph - N/A   Scattered Clouds
6:55 PM 83.1 °F 83.7 °F 61.5 °F 48% 30.20 in 10.0 mi South 12.7 mph - N/A   Scattered Clouds
7:15 PM 82.9 °F 83.5 °F 61.5 °F 48% 30.20 in 10.0 mi South 13.8 mph - N/A   Clear
7:35 PM 81.9 °F 82.9 °F 62.4 °F 52% 30.20 in 10.0 mi South 11.5 mph - N/A   Clear
7:55 PM 81.5 °F 82.7 °F 62.6 °F 53% 30.20 in 10.0 mi South 9.2 mph - N/A   Clear
8:15 PM 80.6 °F 81.9 °F 63.0 °F 55% 30.20 in 10.0 mi SSE 10.4 mph - N/A   Clear
8:35 PM 79.2 °F - 63.5 °F 59% 30.20 in 10.0 mi SSE 10.4 mph - N/A   Clear
8:55 PM 78.1 °F - 63.5 °F 61% 30.20 in 10.0 mi SSE 10.4 mph - N/A   Clear
9:15 PM 76.5 °F - 63.1 °F 63% 30.21 in 10.0 mi SSE 9.2 mph - N/A   Clear
9:35 PM 76.3 °F - 62.6 °F 62% 30.21 in 10.0 mi SSE 11.5 mph - N/A   Clear
9:55 PM 75.6 °F - 62.6 °F 64% 30.22 in 10.0 mi SSE 10.4 mph - N/A   Clear
10:15 PM 74.8 °F - 62.6 °F 66% 30.23 in 10.0 mi South 11.5 mph - N/A   Clear
10:35 PM 74.3 °F - 62.2 °F 66% 30.23 in 10.0 mi South 9.2 mph - N/A   Clear
10:55 PM 73.6 °F - 62.1 °F 67% 30.24 in 10.0 mi South 9.2 mph - N/A   Clear
11:15 PM 73.4 °F - 62.1 °F 68% 30.24 in 10.0 mi South 11.5 mph - N/A   Clear
11:35 PM 73.0 °F - 61.9 °F 68% 30.25 in 10.0 mi South 10.4 mph - N/A   Clear
11:55 PM 72.3 °F - 61.7 °F 69% 30.25 in 10.0 mi South 10.4 mph - N/A   Clear